Change the Weather History Date:

Wednesday, March 19, 2014

  Actual Average Record
Temperature  
Mean Temperature 50 °F -  
Max Temperature 62 °F 65 °F 83 °F (1969)
Min Temperature 36 °F 41 °F 21 °F (1965)
Degree Days  
Heating Degree Days 15    
Moisture  
Dew Point 29 °F    
Average Humidity 51    
Maximum Humidity 79    
Minimum Humidity 24    
Precipitation  
Precipitation 0.00 in - - ()
Sea Level Pressure  
Sea Level Pressure 30.12 in    
Wind  
Wind Speed 10 mph (NNW)    
Max Wind Speed 16 mph    
Max Gust Speed 25 mph    
Visibility 10 miles    
Events      
Averages and records for this station are not official NWS values.
T = Trace of Precipitation, MM = Missing Value Source: NWS Daily Summary

Daily Weather History Graph

Daily Weather History Graph

Search for Another Location

Airport or City:

Trip Planner

Search our weather history database for the weather conditions in past years. The results will help you decide how hot, cold, wet, or windy it might be!

Date:

Astronomy

Mar. 19, 2014 Rise Set
Actual Time 7:28 AM CDT 7:34 PM CDT
Civil Twilight 7:02 AM CDT 7:59 PM CDT
Nautical Twilight 6:33 AM CDT 8:28 PM CDT
Astronomical Twilight 6:03 AM CDT 8:58 PM CDT
Moon 10:45 PM CDT (3/19) 9:02 AM CDT (3/19)
Length of Visible Light 12h 56m
Length of Day
12h 05m
Waning Gibbous, 91% of the Moon is Illuminated
Mar 19
Waning Gibbous
Mar 23
Last Quarter
Mar 30
New
Apr 7
First Quarter
Apr 15
Full

Hourly Weather History & Observations

Time (CDT) Temp. Windchill Dew Point Humidity Pressure Visibility Wind Dir Wind Speed Gust Speed Precip Events Conditions
12:53 AM 51.1 °F - 28.0 °F 41% 29.91 in 10.0 mi WNW 15.0 mph 25.3 mph N/A   Scattered Clouds
1:53 AM 46.9 °F - 26.1 °F 44% 29.95 in 10.0 mi NW 13.8 mph 21.9 mph N/A   Partly Cloudy
2:53 AM 45.0 °F 37.9 °F 28.0 °F 52% 29.96 in 10.0 mi NW 16.1 mph 20.7 mph N/A   Partly Cloudy
3:53 AM 44.1 °F 40.1 °F 28.9 °F 55% 29.99 in 10.0 mi NNW 6.9 mph - N/A   Clear
4:53 AM 41.0 °F - 28.9 °F 62% 30.01 in 10.0 mi Calm Calm - N/A   Partly Cloudy
5:53 AM 39.9 °F 34.5 °F 28.9 °F 65% 30.04 in 10.0 mi NW 8.1 mph - N/A   Partly Cloudy
6:53 AM 39.9 °F 33.4 °F 28.9 °F 65% 30.07 in 10.0 mi NW 10.4 mph - N/A   Partly Cloudy
7:53 AM 39.0 °F 34.8 °F 30.0 °F 70% 30.11 in 10.0 mi NNW 5.8 mph - N/A   Partly Cloudy
8:53 AM 42.1 °F 36.1 °F 30.0 °F 62% 30.15 in 10.0 mi NNW 10.4 mph 17.3 mph N/A   Clear
9:53 AM 44.1 °F 37.4 °F 30.9 °F 60% 30.17 in 10.0 mi North 13.8 mph - N/A   Clear
10:53 AM 46.9 °F - 30.9 °F 54% 30.21 in 10.0 mi NW 13.8 mph - N/A   Clear
11:53 AM 50.0 °F - 32.0 °F 50% 30.21 in 10.0 mi NNW 12.7 mph - N/A   Partly Cloudy
12:53 PM 53.1 °F - 32.0 °F 45% 30.21 in 10.0 mi NNW 10.4 mph 18.4 mph N/A   Partly Cloudy
1:53 PM 55.9 °F - 30.9 °F 39% 30.19 in 10.0 mi NNE 12.7 mph 21.9 mph N/A   Clear
2:53 PM 57.9 °F - 30.0 °F 35% 30.16 in 10.0 mi North 13.8 mph 20.7 mph N/A   Partly Cloudy
3:53 PM 60.1 °F - 27.0 °F 28% 30.15 in 10.0 mi North 13.8 mph 19.6 mph N/A   Partly Cloudy
4:53 PM 61.0 °F - 24.1 °F 24% 30.14 in 10.0 mi North 10.4 mph - N/A   Partly Cloudy
5:53 PM 60.1 °F - 26.1 °F 27% 30.15 in 10.0 mi ENE 6.9 mph - N/A   Partly Cloudy
6:53 PM 59.0 °F - 26.1 °F 28% 30.16 in 10.0 mi East 3.5 mph - N/A   Scattered Clouds
7:53 PM 54.0 °F - 27.0 °F 35% 30.17 in 10.0 mi East 3.5 mph - N/A   Partly Cloudy
8:53 PM 43.0 °F - 32.0 °F 65% 30.19 in 10.0 mi Calm Calm - N/A   Scattered Clouds
9:53 PM 39.9 °F - 33.1 °F 77% 30.20 in 10.0 mi Calm Calm - N/A   Mostly Cloudy
10:53 PM 39.0 °F - 28.0 °F 65% 30.21 in 10.0 mi Calm Calm - N/A   Clear
11:53 PM 36.0 °F - 30.0 °F 79% 30.22 in 10.0 mi Calm Calm - N/A   Clear